Theta_e
345 345 344 345 347 347 349 349 349 348 350 352 352 352 352 351 352 350 349 349 350 351 350 350 348 348 349 348 348 347 345 344 342 338 340 343 344 343 342 342 343 340 342
347 346 344 345 346 348 348 349 349 348 349 350 352 352 350 349 348 350 349 349 348 350 350 350 349 349 348 348 348 347 347 345 341 341 344 341 343 345 344 344 344 342 339
350 347 345 344 345 348 349 349 350 349 349 352 353 350 347 349 348 348 349 349 348 347 349 348 349 349 350 349 348 347 347 345 345 344 345 341 341 344 346 346 346 346 345
350 349 347 345 345 348 348 349 350 350 351 353 350 348 346 348 348 348 348 349 350 348 349 347 348 349 349 350 348 348 347 346 346 345 344 345 346 344 345 346 345 347 345
351 350 348 346 347 347 348 348 349 351 352 351 349 346 347 345 347 348 348 348 350 349 350 350 348 349 349 348 349 349 347 346 347 346 347 345 347 346 345 345 344 345 345
351 350 349 347 349 349 349 349 348 348 349 350 350 348 348 348 346 347 348 348 349 349 350 351 351 351 349 349 349 349 349 349 348 348 347 347 345 345 344 345 345 345 345
351 349 346 347 350 351 350 351 350 349 349 349 349 350 349 350 349 348 348 347 348 349 349 350 352 352 351 351 350 350 352 351 351 351 349 348 347 345 346 346 345 345 346
345 349 346 348 352 352 351 351 353 352 350 351 350 351 351 350 351 349 350 350 348 347 347 348 349 349 350 350 351 351 351 351 351 351 351 350 350 349 347 346 345 343 342
343 349 349 350 354 354 353 352 354 353 353 353 353 353 353 353 354 351 351 351 351 348 346 346 347 348 348 350 351 351 352 352 352 353 353 352 351 351 350 349 348 345 345
348 348 348 350 354 354 355 355 355 355 355 356 356 356 356 356 355 354 354 354 353 352 349 347 349 351 351 351 352 353 353 352 352 353 353 353 353 352 351 351 350 348 346
347 347 347 348 350 353 356 357 359 358 358 356 342 354 356 356 356 356 356 355 355 355 356 356 355 354 354 353 354 354 354 353 353 353 353 353 353 352 352 351 350 349 348
342 341 340 345 347 345 348 351 357 360 361 360 358 357 358 357 357 357 356 358 358 357 355 355 355 356 356 355 355 354 353 354 354 354 354 354 354 354 353 352 350 350 349
348 341 334 336 337 343 344 339 340 342 346 361 362 361 360 360 359 359 356 355 357 358 359 358 356 355 354 354 356 356 355 354 354 355 356 357 356 355 353 353 352 352 352
348 342 337 339 342 345 345 341 353 355 349 351 362 363 362 362 361 361 361 361 360 360 360 359 357 356 356 360 357 358 357 356 357 357 358 357 356 354 354 354 353 353 352
344 342 339 340 344 343 344 336 343 352 358 354 363 363 363 363 363 364 364 364 364 365 364 363 361 358 361 360 360 360 358 358 358 358 359 357 356 353 353 354 353 353 352
345 342 339 338 341 337 337 335 343 354 358 363 365 364 364 364 364 364 365 364 365 365 365 364 363 361 360 362 362 361 361 361 360 359 359 358 357 354 355 354 354 353 352
341 338 335 336 339 341 339 337 343 349 357 361 362 358 361 362 363 364 365 365 365 365 365 364 364 364 362 361 362 362 362 360 359 357 358 358 357 355 354 354 354 351 352
341 338 337 337 338 338 337 339 340 347 351 358 358 351 347 359 363 362 363 364 364 365 364 364 363 363 363 362 363 362 361 359 358 357 357 356 353 354 352 352 354 352 351
336 339 340 339 338 338 340 341 343 344 348 348 346 345 345 347 350 353 362 364 362 363 363 364 363 362 362 363 363 363 361 359 357 357 355 354 354 354 354 354 353 352 353
336 337 337 338 341 341 340 340 339 338 339 340 341 342 343 344 342 342 354 356 367 362 362 362 363 362 361 362 364 362 361 359 356 355 356 356 355 355 354 352 353 353 353
334 336 338 340 340 340 339 338 336 336 336 335 334 333 333 333 336 343 345 348 359 369 364 362 363 363 362 363 363 362 362 362 358 356 356 357 357 355 356 355 353 353 353
331 332 337 338 339 338 338 337 337 337 337 333 332 333 335 336 339 344 345 346 352 368 367 363 362 360 360 356 352 358 361 362 359 357 357 357 353 353 353 353 354 353 352
332 335 333 338 338 338 338 338 338 338 335 332 330 330 333 336 340 342 346 350 355 361 365 357 349 344 350 349 345 340 342 354 357 357 357 354 354 354 353 352 352 350 349
328 329 334 337 338 339 339 339 339 339 337 336 333 330 332 332 338 343 345 342 349 358 355 349 344 345 348 350 350 341 340 344 353 353 354 353 351 351 351 351 350 349 347
326 327 327 331 339 340 340 340 340 340 339 337 331 330 331 333 338 343 343 342 344 349 351 350 348 345 348 346 344 339 340 338 346 348 349 350 349 349 349 348 347 346 345
325 326 326 326 328 333 339 339 340 341 339 335 331 331 333 334 336 341 342 340 342 349 351 349 352 347 346 345 344 337 345 346 347 346 347 347 347 347 348 346 344 342 341
Wind_Speed
19 23 31 38 36 37 39 40 38 37 34 32 30 26 24 24 28 25 25 25 23 21 20 22 19 20 20 19 20 18 17 15 13 10 12 15 17 17 18 17 16 19 15
16 16 21 30 35 38 39 41 42 40 38 35 33 28 24 15 17 26 26 25 25 22 22 22 22 22 21 21 21 20 18 15 12 6 4 3 3 8 17 18 17 19 22
19 15 17 27 32 35 38 40 43 43 40 37 32 24 23 15 16 23 28 26 26 22 23 21 22 21 22 23 23 23 22 18 15 18 6 1 3 3 2 9 18 20 20
18 17 19 22 29 32 36 40 42 44 43 39 35 31 26 20 19 23 27 27 27 25 23 19 22 22 21 23 25 24 25 21 16 10 20 15 7 2 3 1 5 15 18
19 19 20 23 27 30 34 35 42 44 42 41 38 31 26 26 21 21 24 27 29 29 27 24 22 22 22 23 23 24 27 27 23 19 8 13 19 17 9 3 7 7 14
16 12 21 24 27 30 30 34 36 42 43 43 38 37 32 26 23 21 22 24 27 30 30 29 26 25 24 25 25 24 25 27 28 27 21 15 7 8 9 8 11 10 12
12 13 16 22 27 33 34 34 38 40 42 43 40 38 36 30 27 26 24 24 28 31 32 30 30 30 29 29 27 27 27 28 27 28 29 28 28 23 13 12 6 8 8
8 13 14 21 25 30 38 38 38 37 43 43 43 39 37 33 31 29 27 28 29 31 32 32 32 32 31 31 30 30 30 29 29 29 29 29 29 26 26 24 12 3 5
7 9 10 18 23 27 34 37 35 37 41 41 37 37 36 35 34 33 31 30 28 30 29 29 30 34 35 33 31 32 33 32 29 29 29 28 27 24 22 22 22 15 2
11 11 10 18 24 25 25 28 29 30 27 21 20 30 38 36 34 33 33 32 31 29 29 29 29 30 32 33 33 32 32 26 27 26 25 25 25 21 19 19 19 19 16
11 11 10 21 24 22 26 28 31 32 23 29 29 41 42 36 35 36 35 36 34 30 26 26 26 28 27 28 31 28 29 25 24 22 20 21 18 15 13 13 13 14 16
9 7 9 14 14 6 9 12 17 25 24 31 35 38 39 31 33 36 41 37 36 35 34 31 27 25 25 24 24 21 20 23 23 20 18 17 15 14 12 11 13 15 14
7 5 4 1 8 6 7 10 7 8 4 17 26 27 29 30 33 35 36 38 40 39 35 32 33 33 31 29 27 24 23 22 23 21 19 17 15 15 14 13 12 12 12
3 2 2 4 1 6 10 9 17 18 19 17 23 27 30 31 33 36 35 35 36 36 36 37 38 35 30 28 29 27 26 25 23 21 19 17 17 14 15 14 14 12 12
8 8 7 5 5 4 4 8 14 20 21 18 24 29 28 29 31 35 35 34 32 30 30 30 31 31 29 31 26 23 24 25 25 21 18 17 15 13 15 14 14 14 13
8 7 7 8 12 6 6 10 13 16 8 13 17 16 23 28 31 35 34 33 33 32 29 28 28 28 32 30 28 26 25 24 21 20 18 15 15 16 15 15 15 15 15
7 7 8 12 19 20 11 3 8 12 10 1 4 10 16 25 29 34 34 35 34 31 30 28 28 28 25 25 24 21 24 21 19 18 18 16 15 16 15 16 17 16 17
7 8 10 13 18 13 4 4 8 12 13 11 8 6 13 11 12 25 32 35 34 34 33 32 29 28 27 24 23 21 22 23 21 20 18 16 15 16 17 18 19 19 19
3 7 15 14 10 8 8 9 12 12 10 9 8 9 9 12 13 13 13 23 29 29 32 34 33 31 29 27 24 23 21 22 19 18 18 17 16 16 16 18 18 18 19
2 7 9 11 13 11 6 5 6 6 7 9 8 9 13 15 17 18 16 15 19 27 28 32 35 35 33 29 26 26 27 26 24 22 23 21 19 18 17 19 19 20 21
8 6 11 15 11 9 5 2 1 3 4 6 10 12 14 18 22 21 23 22 17 21 25 30 32 32 29 26 24 25 26 27 26 26 26 23 20 19 19 20 20 20 18
13 13 15 16 14 13 11 7 6 5 7 9 11 14 15 17 21 21 23 22 20 19 24 19 15 15 14 7 2 17 23 24 24 24 22 19 19 17 18 19 18 17 18
17 19 18 20 16 15 14 14 11 9 12 14 16 18 19 19 18 20 23 21 18 18 15 17 20 17 21 15 13 25 20 16 20 23 20 14 8 9 12 13 10 11 13
19 25 19 17 21 21 21 20 18 17 14 15 17 19 19 21 20 17 17 19 17 18 19 23 23 19 18 7 8 22 21 27 20 26 22 19 14 12 12 11 9 6 6
25 25 23 22 27 29 28 28 27 23 20 19 19 20 21 19 18 18 20 18 17 16 23 29 30 24 26 41 37 12 23 30 33 28 18 15 15 12 9 7 7 6 4
23 24 25 25 29 32 36 37 34 30 26 22 22 22 19 18 18 17 18 19 19 17 24 30 35 25 28 32 34 31 23 28 31 21 19 14 12 10 11 12 11 10 9
Wind_Direction
213 208 187 190 188 190 189 194 196 204 203 206 208 211 213 221 226 224 223 217 216 213 213 209 214 214 217 217 212 216 215 218 223 237 263 272 257 250 247 248 247 235 241
208 203 180 180 182 185 189 192 197 201 204 207 207 202 197 205 217 221 222 220 218 220 220 222 219 218 220 215 215 220 221 224 226 229 233 305 280 256 247 246 238 235 236
206 196 181 179 182 185 186 191 196 201 203 206 205 198 200 192 204 213 217 222 218 222 224 223 221 222 223 221 220 224 226 227 239 228 220 210 254 326 292 266 250 246 242
205 201 189 175 182 186 188 191 194 201 201 203 201 204 201 190 202 208 213 217 221 224 226 227 217 221 224 228 228 229 229 226 232 236 233 239 261 229 312 300 303 250 244
201 194 192 179 180 182 185 191 192 197 198 201 207 214 214 212 209 206 214 221 224 225 228 228 225 227 231 229 230 233 232 230 234 234 220 229 237 251 236 269 248 244 253
202 187 178 170 171 180 183 191 192 198 202 207 209 210 219 216 217 212 215 224 226 227 230 233 232 236 237 235 236 239 244 239 239 245 241 227 204 218 214 231 246 235 263
177 165 161 167 168 170 182 191 197 198 204 207 207 210 216 215 219 223 227 230 231 231 232 235 236 237 240 241 242 242 249 247 248 252 250 249 247 246 237 241 257 247 259
145 168 163 169 170 173 180 189 196 197 203 209 209 211 216 218 222 224 229 234 236 238 239 240 241 242 245 245 245 247 251 252 256 259 260 262 263 264 253 246 234 278 255
139 121 111 140 168 180 188 195 196 201 202 207 211 214 217 221 225 227 230 237 241 241 245 246 249 251 250 250 250 251 252 254 260 262 266 269 271 270 268 257 251 219 252
93 111 129 139 166 176 186 200 209 211 199 191 213 225 225 223 229 235 236 237 241 243 247 246 252 254 256 256 255 255 255 257 261 267 268 270 273 279 271 266 260 244 237
115 137 154 161 158 169 189 197 207 214 185 210 206 237 236 229 232 237 241 241 240 240 240 247 249 251 252 258 260 259 261 253 262 265 268 270 271 266 269 263 251 239 236
137 148 169 177 175 214 217 193 199 204 195 198 216 218 228 234 235 240 241 242 245 246 246 245 246 250 254 260 262 256 257 246 252 261 266 266 260 259 261 252 247 248 247
136 113 96 138 146 103 195 168 141 233 295 235 222 230 235 236 243 245 245 243 245 247 249 249 247 249 254 255 255 254 253 251 252 258 262 262 251 252 248 238 242 247 250
35 41 120 203 168 0 29 2 352 347 288 242 227 228 234 240 247 250 249 247 246 248 251 251 252 252 253 254 251 253 251 252 252 255 257 261 251 258 253 244 245 240 238
178 199 204 202 208 179 117 343 325 320 296 231 215 226 233 243 246 248 250 248 244 246 250 251 250 248 250 250 252 248 249 250 250 253 252 256 256 251 253 253 245 233 225
191 196 209 208 207 209 207 322 351 356 338 203 218 234 241 243 246 250 250 251 248 247 245 247 249 249 248 250 254 251 246 252 253 252 248 254 259 246 249 250 248 244 230
174 195 209 210 197 212 224 2 31 32 46 172 202 3 281 258 255 252 246 250 251 252 247 245 247 248 249 248 249 248 250 251 247 245 242 242 244 241 244 243 243 244 246
183 181 194 199 198 196 169 109 82 78 80 74 73 176 269 322 298 261 253 251 249 247 249 248 243 244 247 246 244 242 244 245 245 243 236 232 231 228 226 229 232 240 246
248 176 170 164 159 153 142 114 86 88 77 72 35 2 345 332 334 321 300 274 254 247 247 250 247 241 243 243 241 234 238 239 245 249 239 238 240 235 230 234 237 242 253
213 161 158 164 154 151 132 74 49 48 38 4 2 343 331 330 327 319 312 311 282 257 251 246 245 243 240 236 228 223 224 222 228 236 230 228 238 244 242 238 237 246 253
273 250 202 190 187 177 173 159 263 330 340 332 327 324 319 318 323 324 327 321 309 263 251 248 242 244 238 236 228 223 231 230 227 233 232 233 234 241 249 251 251 251 268
297 284 261 226 209 201 203 213 245 287 298 307 314 318 320 319 315 320 326 322 314 264 244 226 193 183 179 145 32 238 232 234 237 240 238 246 252 243 234 245 253 262 264
311 310 253 242 232 224 223 219 246 263 279 292 301 307 310 306 308 316 320 322 314 288 216 178 161 140 137 130 73 10 343 269 249 243 236 224 228 213 222 231 236 249 257
316 315 306 256 240 228 230 240 250 246 253 267 280 291 296 304 306 302 303 310 307 286 203 175 165 150 135 121 279 293 314 314 276 262 228 219 233 232 230 226 230 225 253
302 302 302 290 260 240 236 238 238 241 243 250 263 273 284 297 301 296 298 302 294 272 217 196 191 189 187 216 217 210 231 254 262 269 246 225 228 216 202 193 177 161 179
288 289 289 281 276 274 262 247 242 236 234 239 251 264 279 289 290 285 292 297 296 285 243 222 209 205 222 214 202 196 186 195 234 235 223 214 204 199 195 165 134 142 137